Probability
0 0 0 0 0 0 0 0 0 0 0 0 0 0 0 0 0 0 0 0 0 0 0 0 0 0 0 0 0 0 0 0 0 0 0 0 0 0 0 0 0 0 0
0 0 0 0 0 0 0 0 0 0 0 0 0 0 0 0 0 0 0 0 0 0 0 0 0 0 0 0 0 0 0 0 0 0 0 0 0 0 0 0 0 0 0
0 0 0 0 0 0 0 0 0 0 0 0 0 0 0 0 0 0 0 0 0 0 0 0 0 0 0 0 0 0 0 0 0 0 0 0 0 0 0 0 0 0 0
0 0 0 0 0 0 0 0 0 0 0 0 0 0 0 0 0 0 0 0 0 0 0 0 0 0 0 0 0 0 0 0 0 0 0 0 0 0 0 0 0 0 0
0 0 0 0 0 0 0 0 0 0 0 0 0 0 0 0 0 0 0 0 0 0 0 0 0 0 0 0 0 0 0 0 0 0 0 0 0 0 0 0 0 0 0
0 0 0 0 0 0 0 0 0 0 0 0 0 0 0 0 0 0 0 0 0 0 0 0 0 0 0 0 0 0 0 0 0 0 0 0 0 0 0 0 0 0 0
0 0 0 0 0 0 0 0 0 0 0 0 0 0 0 0 0 0 0 0 0 0 0 0 0 0 0 0 0 0 0 0 0 0 0 0 0 0 0 0 0 0 0
0 0 0 0 0 0 0 0 0 0 0 0 0 0 0 0 0 0 0 0 0 0 0 0 0 0 0 0 0 0 0 0 0 0 0 0 0 0 0 0 0 0 0
0 0 0 0 0 0 0 0 0 0 0 0 0 0 0 0 0 0 0 0 0 0 0 0 0 0 0 0 0 0 0 0 0 0 0 0 0 0 0 0 0 0 0
0 0 0 0 0 0 0 0 0 0 0 0 0 0 0 0 0 0 0 0 0 0 0 0 0 0 0 0 0 0 0 0 0 0 0 0 0 0 0 0 0 0 0
0 0 0 0 0 0 0 0 0 0 0 0 0 0 0 0 0 0 0 0 0 0 0 0 0 0 0 0 0 0 0 0 0 0 0 0 0 0 0 0 0 0 0
0 0 0 0 0 0 0 0 0 0 0 0 0 0 0 0 0 0 0 0 0 0 0 0 0 0 0 0 0 0 0 0 0 0 0 0 0 0 0 0 0 0 0
0 0 0 0 0 0 0 0 0 0 0 0 0 0 0 0 0 0 0 0 0 0 0 0 0 0 0 0 0 0 0 0 0 0 0 0 0 0 0 0 0 0 0
0 0 0 0 0 0 0 0 0 0 0 0 0 0 0 0 0 0 0 0 0 0 0 0 0 0 0 0 0 0 0 0 0 0 0 0 0 0 0 0 0 0 0
0 0 0 0 0 0 0 0 0 0 0 0 0 0 0 0 0 0 0 0 0 0 0 0 0 0 0 0 0 0 0 0 0 0 0 0 0 0 0 0 0 0 0
0 0 0 0 0 0 0 0 0 0 0 0 0 0 0 0 0 0 0 0 0 0 0 0 0 0 0 0 0 0 0 0 0 0 0 0 0 0 0 0 0 0 0
0 0 0 0 0 0 0 0 0 0 0 0 0 0 0 0 0 0 0 0 0 0 0 0 0 0 0 0 0 0 0 0 0 0 0 0 0 0 0 0 0 0 0
0 0 0 0 0 0 0 0 0 0 0 0 0 0 0 0 0 0 0 0 0 0 0 0 0 0 0 0 0 0 0 0 0 0 0 0 0 0 0 0 0 0 0
0 0 0 0 0 0 0 0 0 0 0 0 0 0 0 0 0 0 0 0 0 0 0 0 0 0 0 0 0 0 0 0 0 0 0 0 0 0 0 0 0 0 0
0 0 0 0 0 0 0 0 0 0 0 0 0 0 0 0 0 0 0 0 0 0 0 0 0 0 0 0 0 0 0 0 0 0 0 0 0 0 0 0 0 0 0
0 0 0 0 0 0 0 0 0 0 0 0 0 0 0 0 0 0 0 0 0 0 0 0 0 0 0 0 0 0 0 0 0 0 0 0 0 0 0 0 0 0 0
0 0 0 0 0 0 0 0 0 0 0 0 0 0 0 0 0 0 0 0 0 0 0 0 0 0 0 0 0 0 0 0 0 0 0 0 0 0 0 0 0 0 0
0 0 0 0 0 0 0 0 0 0 0 0 0 0 0 0 0 0 0 0 0 0 0 0 0 0 0 0 0 0 0 0 0 0 0 0 0 0 0 0 0 0 0
0 0 0 0 0 0 0 0 0 0 0 0 0 0 0 0 0 0 0 0 0 0 0 0 0 0 0 0 0 0 0 0 0 0 0 0 0 0 0 0 0 0 0
0 0 0 0 0 0 0 0 0 0 0 0 0 0 0 0 0 0 0 0 0 0 0 0 0 0 0 0 0 0 0 0 0 0 0 0 0 0 0 0 0 0 0
0 0 0 0 0 0 0 0 0 0 0 0 0 0 0 0 0 0 0 0 0 0 0 0 0 0 0 0 0 0 0 0 0 0 0 0 0 0 0 0 0 0 0
Wind_Speed
4 3 4 4 3 2 2 1 1 1 1 1 1 2 2 2 3 3 4 4 4 4 2 2 2 2 1 1 1 1 1 1 1 0 1 2 2 2 2 2 2 3 3
3 4 4 4 3 3 3 2 2 2 1 1 1 1 1 2 2 3 4 4 4 4 3 2 2 2 1 2 1 1 0 1 0 1 0 1 1 1 2 2 3 3 3
7 6 5 4 4 4 4 3 4 3 2 1 1 1 2 2 3 3 3 4 5 4 3 3 2 2 1 1 1 0 0 1 1 1 1 1 1 1 1 1 2 2 3
6 6 6 5 6 5 4 4 4 3 2 1 0 0 1 1 2 2 3 5 4 4 4 3 2 2 1 1 2 0 0 0 1 1 1 1 1 0 1 2 1 2 2
7 8 8 7 6 4 4 4 3 3 2 1 1 1 1 2 2 3 4 4 4 4 4 3 3 2 1 2 2 1 0 1 1 1 1 1 0 1 1 1 2 1 2
7 6 5 4 4 3 3 3 3 4 3 2 2 2 2 3 3 4 4 4 3 3 5 4 3 2 2 2 2 2 1 1 1 1 1 1 1 1 2 2 1 1 2
7 6 6 6 6 5 5 4 4 4 3 3 3 3 3 2 3 3 3 3 3 3 4 4 4 3 2 2 2 2 2 1 1 2 2 2 2 1 1 2 1 1 2
6 7 8 7 7 7 6 5 5 5 4 3 3 3 3 2 2 3 2 3 2 3 4 4 4 3 3 2 2 1 2 1 1 2 2 2 2 2 2 2 2 1 1
7 8 7 7 7 7 7 6 6 5 5 4 3 3 3 2 3 3 2 2 3 3 4 4 4 4 3 3 2 1 2 2 2 2 2 2 2 2 2 3 3 2 2
6 6 6 7 7 6 6 5 5 6 5 4 4 3 3 3 2 2 3 3 3 3 4 4 4 4 3 3 2 2 2 2 2 1 2 2 2 2 2 3 3 3 3
7 7 6 6 5 5 5 5 5 5 4 4 4 3 3 2 2 2 3 3 3 3 3 3 3 4 4 3 2 2 2 2 2 2 2 3 2 2 2 2 2 3 3
6 5 6 5 4 5 5 5 5 5 5 4 4 4 3 2 2 3 3 3 3 3 3 3 3 3 3 3 3 3 3 2 3 3 2 3 2 2 2 2 3 2 3
5 4 4 5 5 5 5 5 5 5 5 3 4 4 3 3 4 4 3 3 3 3 3 3 3 4 4 3 3 3 3 3 3 3 3 3 3 3 2 3 3 2 3
5 5 5 5 5 5 5 5 5 5 4 4 4 4 4 4 4 4 3 3 3 3 3 3 4 4 4 4 3 3 3 3 3 3 3 3 3 4 3 3 3 3 3
6 7 7 6 5 5 4 4 5 4 4 3 4 5 4 4 4 4 4 3 3 4 3 3 4 4 4 3 3 3 3 3 3 3 3 4 5 6 4 3 3 3 3
7 7 7 6 6 5 5 4 4 3 3 3 4 3 3 3 4 4 4 4 4 4 3 3 4 4 4 7 7 3 2 3 3 4 4 4 4 5 6 6 4 4 4
8 8 7 7 6 6 5 5 4 2 2 3 3 3 3 3 4 3 3 4 4 3 4 4 4 5 6 8 8 6 2 2 3 3 3 3 3 4 3 5 5 5 5
8 8 7 6 5 4 4 3 2 2 2 2 2 2 2 3 3 3 4 4 3 3 4 4 4 4 6 8 7 6 2 2 3 3 3 3 4 4 3 3 3 3 4
7 7 6 6 5 4 4 4 3 2 2 1 2 2 2 2 3 3 4 3 3 3 3 3 4 4 6 8 8 5 1 2 4 3 3 3 4 6 6 3 4 4 4
6 5 5 5 5 4 5 5 4 3 2 2 2 2 1 2 3 4 4 2 2 3 3 3 3 3 5 8 8 6 1 2 3 4 4 5 5 8 7 3 4 5 5
6 7 7 6 5 5 6 6 4 3 2 1 0 1 1 1 2 2 2 2 2 2 2 3 3 3 4 7 8 7 1 2 3 3 4 4 8 9 8 6 4 7 6
7 7 7 5 4 5 7 6 4 2 1 2 2 2 2 2 2 2 2 2 2 2 2 3 4 3 4 5 7 8 5 2 2 3 3 4 9 9 8 5 6 8 6
8 7 8 7 4 4 6 6 3 3 3 3 3 2 3 3 3 2 3 3 2 2 2 2 3 4 4 5 9 9 8 7 2 2 5 7 8 8 5 6 7 5 2
8 8 9 8 5 4 4 5 4 4 5 4 3 2 3 3 4 3 2 2 2 2 2 2 3 3 4 4 4 4 5 6 4 3 5 7 7 5 5 6 5 3 2
8 8 9 9 7 6 5 4 4 5 6 4 3 3 3 3 3 3 2 2 2 2 2 1 1 2 3 5 7 5 4 4 4 3 3 4 5 6 6 5 5 4 4
9 9 9 9 8 7 6 4 4 6 6 4 3 2 2 2 2 2 3 5 5 8 8 7 4 3 5 7 9 10 11 11 9 6 4 5 5 5 5 5 5 4 5
Wind_Direction
223 186 168 154 142 142 152 169 197 285 344 359 350 346 336 329 338 342 346 348 349 349 351 348 341 348 344 322 316 282 265 269 256 316 309 290 238 228 229 216 204 212 208
187 177 168 162 169 179 191 202 227 251 263 265 263 260 283 297 297 312 333 345 349 348 354 354 344 345 348 349 350 0 316 284 216 158 196 318 326 278 238 219 213 215 199
192 188 181 186 189 202 207 210 225 240 253 278 359 3 360 345 343 338 335 334 337 341 345 344 344 340 348 323 303 292 150 279 290 223 175 172 239 300 312 251 228 212 203
189 189 190 195 205 215 215 218 229 242 252 250 63 31 350 309 290 297 304 317 332 337 340 341 344 340 329 317 305 317 221 204 276 299 261 216 194 186 328 330 307 255 223
193 195 198 202 209 213 213 220 234 249 254 246 229 239 281 272 293 306 318 328 330 334 340 339 343 339 328 317 316 321 281 210 212 238 261 237 220 193 205 284 316 313 266
198 204 205 201 215 220 221 221 233 253 256 254 250 241 267 292 316 324 328 327 325 328 341 342 343 332 322 312 308 302 287 256 238 236 232 219 208 203 198 222 257 280 280
192 197 200 205 216 221 224 224 231 253 261 257 259 254 260 270 282 295 306 315 322 320 327 338 333 329 321 311 306 303 298 277 253 247 242 240 238 219 201 208 228 247 279
197 202 206 206 214 222 223 223 231 248 258 255 262 265 260 257 266 275 283 295 292 292 309 326 329 327 328 329 330 318 299 292 276 267 253 246 249 230 215 204 194 225 265
205 209 211 211 217 223 225 220 227 243 253 252 259 268 265 260 269 283 288 292 296 300 323 332 338 339 341 340 341 327 312 308 290 279 268 259 259 246 235 222 200 197 223
211 214 214 216 220 225 230 226 224 235 247 249 250 254 258 261 268 286 301 305 308 315 327 337 341 340 339 340 346 326 317 326 304 281 281 280 269 266 248 229 217 210 211
211 212 214 216 219 224 227 228 229 234 245 246 249 260 269 271 274 277 285 293 301 313 321 325 332 334 332 334 337 321 320 323 314 309 290 284 277 268 260 238 222 215 209
209 209 209 207 213 223 227 228 230 232 239 240 245 254 263 270 274 279 285 289 294 302 306 314 319 323 324 324 321 315 319 311 306 303 296 289 289 279 271 250 237 228 218
204 201 200 207 218 225 229 232 232 235 239 234 242 256 261 261 265 272 284 289 290 296 306 309 308 309 311 311 305 295 297 292 285 284 282 283 284 277 268 255 241 234 231
199 198 207 217 222 225 228 233 240 235 231 226 235 248 254 254 261 270 277 279 281 287 295 298 296 295 296 295 297 293 290 291 286 279 275 277 268 264 263 257 244 232 231
202 204 209 216 220 226 233 235 243 238 220 217 235 248 257 260 264 269 271 275 278 279 283 292 301 301 294 288 292 287 288 293 298 296 284 278 278 275 266 254 236 219 224
206 205 206 205 211 217 222 224 234 231 198 210 239 255 264 268 269 271 273 277 279 282 284 285 291 299 296 308 312 301 282 290 293 299 301 294 293 306 310 302 280 243 226
202 200 200 201 206 209 206 210 221 204 187 217 248 260 261 270 274 281 285 280 279 279 281 282 283 287 290 303 312 313 290 282 285 284 296 308 309 318 310 310 305 289 272
198 199 196 197 201 197 191 188 171 168 183 219 258 271 271 276 287 294 288 284 279 275 275 279 282 284 293 309 314 313 303 287 289 279 272 280 296 300 299 298 299 289 281
191 190 185 179 174 175 169 147 143 144 151 235 269 276 266 272 288 291 288 285 286 287 279 279 287 288 298 315 321 323 295 297 299 295 287 285 287 300 313 301 292 292 289
169 164 154 145 152 162 146 137 142 140 179 241 267 283 270 262 277 282 287 286 279 285 301 309 306 298 300 322 332 335 267 294 303 307 301 298 298 303 312 292 279 285 287
154 146 141 143 154 148 137 135 137 163 209 228 21 9 343 294 289 303 300 299 303 316 326 326 328 331 328 332 343 345 304 264 292 302 305 305 315 313 310 298 266 272 288
145 144 138 135 135 141 138 136 151 176 129 101 73 37 16 7 10 349 339 337 337 347 342 346 344 346 342 346 347 353 349 326 266 284 295 304 319 321 318 310 294 294 298
151 146 139 130 123 135 142 143 160 142 119 97 72 40 29 21 13 20 11 10 16 19 360 5 355 345 349 351 358 0 360 356 337 296 314 327 337 339 337 339 337 330 311
155 148 141 138 139 138 134 143 143 131 115 102 79 53 46 30 22 27 34 42 30 25 20 15 357 343 349 355 356 356 357 358 0 355 357 4 7 6 358 355 356 349 327
156 154 152 149 150 144 135 136 137 127 115 105 88 65 53 44 32 35 41 46 41 65 69 24 7 10 2 0 13 22 12 5 6 15 23 22 16 15 9 3 357 349 346
156 153 151 149 149 144 138 137 137 132 125 115 100 83 67 52 48 45 32 32 42 48 54 56 58 34 32 25 35 37 35 33 37 49 36 23 15 11 3 357 353 352 350